RH
59 58 58 59 63 70 79 91 46 74 55 52 92 92 47 45 54 55 59 69 77 90 82 100 99 94 85 61 61 97 93 98 100 88 82 89 86 98 100 99 98 97 98 100
59 58 57 57 62 72 90 96 71 61 50 83 86 61 34 47 62 63 67 69 65 80 97 98 93 75 58 64 62 94 94 97 99 91 73 72 98 83 91 97 100 100 99 100
58 58 56 55 61 65 73 52 71 90 92 96 87 78 69 54 47 62 66 72 64 86 95 83 99 94 75 81 76 66 76 98 90 90 94 97 96 87 89 94 98 95 100 99
58 58 57 55 59 64 68 77 92 83 89 84 84 79 89 83 79 68 76 76 96 100 100 91 99 90 83 76 95 76 89 98 92 88 91 83 87 94 91 96 99 98 100 98
58 58 57 56 58 59 86 84 81 86 96 74 73 82 78 100 82 87 81 94 95 100 100 97 100 100 98 100 92 88 85 99 99 100 96 96 89 89 85 88 96 98 99 99
58 57 56 60 59 67 96 97 71 60 79 89 83 92 78 77 92 74 94 100 100 90 94 93 94 98 97 100 100 94 91 100 100 100 98 92 89 100 98 96 96 100 98 98
57 57 56 56 57 77 93 97 87 88 81 89 90 99 99 92 98 94 98 100 92 72 96 96 78 85 94 100 92 95 84 100 99 100 92 94 93 96 95 98 98 97 98 96
58 56 53 55 59 59 75 93 86 91 87 95 92 92 100 91 91 99 100 95 87 98 87 90 78 80 75 74 82 92 86 98 82 87 100 92 88 92 98 99 93 98 97 95
58 56 54 51 53 58 84 99 97 93 91 85 84 97 99 96 98 82 79 82 96 87 92 86 98 100 95 88 74 55 78 93 91 87 99 100 100 84 85 92 94 87 95 94
58 54 54 49 50 55 70 95 98 92 92 92 88 91 91 97 98 96 90 83 80 81 87 90 94 96 92 94 92 100 90 94 100 100 95 93 96 89 84 85 96 90 92 94
59 53 52 50 47 50 62 90 98 88 93 90 90 90 98 97 99 94 82 88 84 81 88 91 98 94 92 91 95 100 100 100 100 98 97 94 94 77 87 94 92 89 90 88
60 53 51 53 46 47 54 85 98 93 89 80 90 82 81 79 83 95 95 86 98 96 94 97 96 96 96 99 96 91 97 99 100 100 96 96 96 95 96 96 95 93 94 89
60 55 53 52 54 62 65 95 98 88 93 95 88 79 78 81 89 89 92 97 94 96 94 95 96 96 96 100 100 99 90 99 100 98 88 93 81 96 84 80 96 88 80 88
59 61 56 57 61 62 62 78 96 75 76 87 81 81 78 85 82 90 90 90 91 91 95 95 97 94 84 98 95 98 99 98 94 96 89 84 87 72 81 86 82 84 81 84
53 54 53 60 63 68 78 84 88 83 81 84 86 83 77 65 92 91 96 94 97 97 92 92 94 96 91 98 95 100 98 98 99 99 86 98 88 83 84 93 90 92 92 88
58 56 55 53 59 66 57 70 69 65 73 82 84 78 78 67 74 73 87 92 96 98 94 99 99 93 92 91 97 89 91 96 96 95 95 96 90 88 92 99 91 91 93 93
60 60 60 61 59 66 55 69 68 66 91 83 87 85 69 70 86 86 82 86 98 95 100 100 99 98 91 97 100 95 90 90 95 93 94 88 96 94 88 92 91 99 98 96
48 48 53 53 56 57 79 93 60 61 61 62 90 82 71 74 84 92 88 94 97 92 99 97 97 93 95 98 94 95 91 89 88 89 94 96 92 96 92 91 99 98 97 96
51 51 46 47 49 57 58 58 61 68 60 92 95 100 97 75 87 96 89 94 92 93 86 92 93 90 98 96 93 89 90 98 94 90 86 86 92 88 87 88 95 98 89 89
45 40 38 60 49 56 50 54 65 72 84 90 98 94 98 94 94 95 94 97 100 100 95 93 94 98 95 98 95 96 95 96 95 94 88 88 90 89 89 91 87 94 91 92
44 47 54 47 51 46 60 82 84 87 88 94 99 99 100 92 100 100 99 100 99 94 92 97 99 99 92 92 81 96 95 94 91 90 93 94 94 95 94 90 87 89 90 90
48 55 55 54 63 80 71 96 82 90 95 95 99 98 99 98 96 100 97 100 93 95 96 97 100 93 95 77 90 87 77 76 81 84 83 84 90 89 91 93 92 87 89 86
51 61 72 76 80 78 91 99 88 92 92 98 97 94 100 94 92 99 100 88 95 93 94 92 93 91 75 81 82 83 71 72 83 80 79 80 78 77 86 93 91 81 82 86
80 74 66 84 87 90 97 94 96 87 99 95 98 100 100 99 99 100 94 92 88 91 96 94 87 77 84 79 78 84 86 86 86 85 86 88 83 82 75 77 76 92 92 82
83 77 80 81 88 95 93 97 98 93 99 99 99 99 97 98 89 97 90 82 92 98 94 81 77 81 81 84 84 84 91 91 92 92 89 83 82 89 86 65 77 92 74 67
80 79 80 94 90 91 94 98 98 97 99 99 96 95 77 92 98 79 99 98 96 92 84 81 79 83 84 85 81 89 91 91 91 82 80 81 91 84 80 72 79 67 71 85
72 84 97 96 96 92 96 98 96 97 97 100 98 88 98 94 88 85 98 93 94 86 85 77 79 85 87 84 88 86 89 91 86 82 81 93 82 77 79 84 90 73 79 84
Wind_Speed
25 27 27 27 24 22 8 2 4 6 8 9 3 4 4 8 8 11 6 3 4 3 5 4 6 5 4 10 11 5 3 2 3 2 5 2 5 9 1 3 7 4 3 3
26 27 28 28 25 16 2 4 2 7 6 6 4 4 3 6 10 7 8 6 6 5 4 4 5 7 7 12 16 11 3 3 2 4 7 8 5 19 13 5 1 3 3 1
26 28 30 30 28 17 6 4 5 7 8 3 5 4 5 5 6 4 5 6 4 6 7 6 3 7 4 7 12 16 6 3 4 10 6 1 10 22 22 9 5 5 8 7
27 30 31 32 30 16 6 5 2 1 6 6 5 4 3 5 7 5 6 5 5 2 5 6 5 4 8 5 14 9 6 3 7 12 12 9 18 17 22 20 14 7 2 6
26 29 29 32 33 14 8 4 4 5 3 4 5 7 4 2 6 4 6 4 5 3 4 5 4 3 2 2 10 7 7 3 3 2 8 4 13 18 17 15 11 6 6 3
26 27 28 29 30 13 4 2 3 6 6 5 4 3 5 4 4 3 2 2 3 4 4 6 4 3 3 3 1 5 4 3 2 2 4 5 6 15 7 4 9 3 7 6
24 25 27 25 26 13 4 2 3 6 3 4 1 3 2 3 3 3 4 3 5 6 1 3 5 7 5 5 4 3 2 2 2 0 4 8 5 5 2 2 1 4 3 7
23 24 24 23 18 20 6 3 4 5 2 4 3 5 4 5 4 2 3 4 7 3 5 5 7 6 7 6 2 4 4 3 4 5 3 2 5 12 4 2 3 2 7 10
22 22 21 21 20 11 6 3 0 6 8 6 5 2 0 2 4 6 5 4 3 3 3 6 6 5 3 9 17 9 4 5 7 6 7 3 1 17 3 4 2 12 13 11
22 21 20 18 17 16 7 2 3 8 7 3 3 3 2 2 1 2 5 9 9 1 4 5 5 3 3 6 10 11 9 7 7 5 2 5 4 18 3 7 9 18 14 11
20 19 19 17 16 17 7 1 3 7 6 4 5 5 2 3 3 3 5 3 5 5 7 4 2 4 3 3 3 2 4 4 4 2 6 7 9 7 7 8 8 11 12 9
17 17 18 19 18 15 8 6 3 4 8 5 6 6 4 6 7 5 4 5 1 3 5 3 3 3 2 1 5 2 5 2 3 1 5 3 3 6 4 5 12 7 14 13
14 14 19 19 18 17 10 4 1 5 5 3 4 4 3 3 4 3 4 2 4 2 4 5 3 5 2 2 1 2 4 2 2 6 3 8 15 3 6 14 9 11 13 14
10 11 12 17 21 21 11 4 1 4 4 6 5 0 3 2 3 2 3 4 2 4 2 4 3 3 1 2 3 2 3 2 6 6 5 15 4 18 16 15 12 13 13 13
13 14 4 8 11 15 9 3 0 2 6 5 3 2 3 1 1 2 1 3 3 2 3 4 1 1 2 2 2 3 2 5 5 6 13 7 15 16 15 10 15 12 12 12
12 15 17 9 4 4 2 5 2 7 3 6 3 3 5 6 6 5 3 1 3 3 4 2 2 2 3 4 1 5 5 5 6 9 9 14 16 11 6 5 12 13 12 10
9 12 16 19 21 6 7 4 6 10 2 5 4 4 4 5 2 3 4 4 2 3 2 2 3 2 3 3 1 9 10 8 9 8 11 15 4 15 15 12 11 11 8 8
5 8 9 8 13 9 5 4 13 3 6 6 5 6 5 7 4 5 4 4 3 5 3 1 2 1 3 3 8 7 8 10 9 10 7 11 13 9 10 7 6 9 9 8
4 5 5 4 6 5 2 6 9 6 7 6 4 3 6 8 2 1 4 3 4 2 3 2 1 2 3 5 11 13 13 9 16 13 10 10 9 12 11 11 8 6 12 11
3 3 4 5 3 8 5 6 6 9 6 6 4 1 4 4 4 3 5 3 2 3 2 2 2 2 2 4 7 8 11 11 13 16 17 17 16 14 16 14 13 9 12 13
3 4 3 3 7 4 6 6 7 5 7 4 1 2 3 2 2 3 2 2 2 4 5 2 2 1 5 7 17 7 9 10 12 13 13 13 14 15 14 13 13 11 12 12
3 6 4 4 8 6 9 4 5 6 3 4 3 4 2 3 0 3 3 1 4 3 3 4 3 5 6 18 17 16 16 17 17 14 16 16 15 12 13 13 12 12 12 11
4 7 8 7 7 14 9 8 8 6 5 2 5 8 2 4 3 2 3 7 4 2 6 2 5 6 17 18 17 17 17 18 16 17 16 15 16 14 14 13 11 12 12 12
7 7 10 7 6 2 4 5 5 6 3 6 4 2 2 2 5 1 5 3 4 6 7 5 6 18 20 18 17 17 20 18 18 17 16 15 16 15 16 15 14 12 12 13
6 7 6 3 3 3 4 2 3 4 1 2 3 2 2 3 5 3 3 10 6 3 5 7 14 19 18 19 19 19 16 16 16 15 15 16 17 16 14 14 11 10 11 12
6 9 5 1 3 5 4 1 4 1 2 1 2 1 6 5 1 7 0 2 5 6 9 13 15 18 18 18 18 16 15 16 15 15 16 16 15 14 12 12 11 11 10 9
7 2 1 2 2 4 3 1 4 2 3 3 2 7 3 3 5 6 3 4 6 12 13 11 14 17 18 17 16 16 16 15 15 15 16 13 11 11 10 13 10 12 10 8
Wind_Direction
11 6 1 358 354 350 38 45 32 328 341 50 35 55 24 8 0 11 20 67 9 4 339 1 12 47 46 26 360 324 292 129 41 112 182 157 72 357 22 116 342 4 53 356
14 8 5 5 2 16 36 57 334 340 23 64 3 358 48 48 11 23 15 24 16 14 3 30 8 359 52 24 8 348 335 16 23 350 351 7 14 360 344 246 95 353 25 51
15 12 10 7 7 11 77 62 15 356 42 59 98 20 359 343 20 59 8 17 45 28 18 12 316 345 348 359 355 13 89 98 170 117 154 303 8 9 9 24 63 65 49 62
18 16 13 7 9 12 86 25 57 174 352 16 48 37 14 341 1 18 17 12 57 100 25 3 15 348 332 1 352 7 64 92 99 127 142 63 37 19 15 25 23 58 7 50
22 20 17 12 7 18 76 82 93 19 58 359 39 356 339 9 321 30 340 79 1 39 95 158 268 29 56 210 328 26 350 145 95 286 256 56 49 29 24 23 11 29 9 48
25 24 22 20 13 23 81 28 44 99 338 356 56 296 304 325 334 313 167 184 75 33 228 206 234 180 147 177 105 335 30 95 103 324 14 101 28 20 27 25 29 338 16 304
28 28 28 27 26 42 93 53 97 77 331 57 280 338 239 287 285 215 280 93 87 244 49 98 35 54 62 73 16 121 54 56 34 186 27 47 289 359 325 167 358 348 294 330
31 31 30 29 40 44 72 21 83 103 81 216 327 344 297 316 307 302 245 264 222 146 59 42 25 354 15 343 357 16 87 100 53 84 47 295 353 351 341 10 288 306 337 335
33 31 31 33 35 62 84 78 281 86 114 346 224 305 29 343 331 347 283 284 220 61 81 51 56 31 287 337 339 350 30 78 88 27 92 127 315 329 311 134 245 352 351 336
35 30 32 38 44 62 85 54 64 83 100 282 95 29 249 152 42 208 314 339 351 63 38 52 45 16 209 9 358 336 344 3 62 4 47 302 293 324 99 51 316 334 331 322
38 31 35 40 48 55 71 243 1 107 101 266 166 187 51 350 47 68 286 4 357 14 55 73 316 61 313 47 246 337 352 26 339 353 24 351 6 347 51 305 301 308 322 317
42 37 43 46 55 64 80 50 359 31 80 180 179 205 193 164 187 149 352 144 202 194 88 44 135 52 43 203 6 317 26 93 284 359 261 270 296 216 248 295 319 322 312 312
46 48 53 57 62 60 85 125 258 55 92 359 52 322 293 215 184 178 94 322 167 23 186 159 161 85 138 73 352 300 325 191 237 342 305 318 321 229 312 334 310 326 320 322
50 59 72 73 75 70 73 82 246 84 117 101 282 104 6 207 182 164 160 142 104 109 88 93 102 112 215 177 165 105 251 348 295 265 307 316 321 331 323 324 317 325 322 317
48 45 93 123 99 89 74 68 74 118 118 150 247 301 308 51 123 80 108 96 106 76 46 53 97 99 87 3 84 10 345 314 343 284 297 263 301 312 315 310 321 316 316 319
67 56 56 66 173 153 66 13 311 30 76 96 53 262 359 348 8 34 28 94 86 88 105 170 313 260 101 78 331 246 258 270 256 293 293 290 292 291 273 269 306 299 316 306
86 72 68 66 74 70 67 144 277 337 64 72 27 348 12 342 13 8 357 19 50 90 123 66 126 11 72 90 307 317 321 302 289 286 304 306 298 309 310 300 284 294 285 282
108 85 82 84 87 85 37 326 16 49 84 51 53 306 356 8 351 340 1 360 11 13 132 63 54 22 62 52 332 294 300 310 311 306 277 272 290 296 284 274 292 306 297 283
117 95 94 56 36 45 289 340 45 39 74 95 66 14 300 0 11 359 341 19 36 262 62 35 310 60 49 295 320 333 324 308 315 312 306 299 299 304 310 321 297 286 310 306
92 53 43 27 342 299 6 7 22 23 12 36 93 165 302 12 353 325 336 8 57 51 298 293 79 128 259 274 276 282 292 293 306 320 327 322 316 324 319 317 314 302 309 308
42 53 68 257 335 45 33 39 43 338 21 19 297 166 294 359 29 295 80 284 313 55 286 73 38 314 317 305 333 306 306 311 320 309 307 312 313 310 314 317 313 309 310 312
142 119 87 35 28 30 62 1 348 37 318 330 8 312 219 308 289 40 331 51 24 320 292 55 358 262 286 341 336 337 339 333 327 331 326 320 316 323 316 309 311 312 307 306
44 48 50 42 328 36 54 345 321 337 333 346 343 325 12 338 27 16 20 31 275 305 34 243 224 289 337 336 336 333 333 329 332 330 327 326 328 325 321 316 310 308 312 304
65 64 35 77 2 343 194 206 228 258 266 323 336 282 8 324 2 344 34 254 53 26 10 269 309 333 331 334 332 332 330 336 334 330 329 335 335 331 328 330 329 323 338 343
76 65 68 69 226 254 246 243 315 263 258 350 352 2 62 342 25 35 355 11 342 187 264 300 325 328 328 329 331 329 330 337 333 334 338 336 334 330 342 334 345 354 344 333
70 49 68 22 53 300 324 295 273 272 329 90 73 42 41 17 105 31 37 67 264 283 311 315 319 321 325 325 326 326 334 334 333 336 336 333 334 348 336 335 340 353 342 340
56 23 67 124 142 216 259 205 274 323 39 17 48 45 259 306 18 350 177 210 265 306 309 312 315 317 319 321 322 333 333 333 336 333 332 335 348 335 333 336 339 343 335 327